Weather in Yegoryevskoye

Russia / Novosibirsk Oblast     54°30′07″N   84°34′58″E
temp.,
°C
wind,
m/s
gust,
m/s
humid.,
%
clouds,
%
prec.,
mm/h
press.,
hPa
HPBL,
m
28 february, sun
sun2801:00−28ssw2310097 0.1 104065
04:00−29s2210087 0.0 103928
07:00−30s2210085 0.0 104026
10:00−26sse259995 0.0 1039167
13:00−19sse369694 0.0 1036328
16:00−15sse488698 0.0 1033440
19:00−15sse389699 0.1 1029311
22:00−14sse41095100 0.6 1027373
1 march, mon
mon101:00−12sse3995100 1.3 1023326
04:00−11sse4995100 0.4 1020388
07:00−9sse41095100 1.8 1016653
10:00−8s51195100 1.6 1013732
13:00−5s51095100 3.6 1011879
16:00−3ssw71495100 1.8 1009932
19:00−2ssw81595100 3.0 1008940
22:00−3ssw81595100 1.1 1007874
2 march, tue
tue201:00−2wsw61296100 3.2 1008816
04:00−3wsw51296100 1.4 1010833
07:00−9w389599 2.1 1013266
10:00−9wsw499495 0.3 1016414
13:00−9w489298 0.6 1017571
16:00−9wsw4692100 0.3 1018610
19:00−11wsw2496100 0.4 1018116
22:00−14sw119895 0.1 101820
3 march, wed
wed301:00−15ese119898 0.2 101720
04:00−14se1197100 0.1 101520
07:00−14e1197100 0.3 101620
10:00−11e0095100 0.3 1015118
13:00−8sw2292100 0.5 1016355
16:00−7wsw3593100 0.5 1017512
19:00−10w369699 0.8 1020220
22:00−13sw379697 0.2 1022220
4 march, thu
thu401:00−16sw369898 0.3 1025197
04:00−19s24100100 0.1 102589
07:00−20sse26100100 0.1 1027115
10:00−17sse4798100 0.0 1026254
13:00−11s4895100 0.1 1024429
16:00−8sse5993100 0.1 1022603
19:00−8sse41094100 0.2 1021519
22:00−10sse41290100 0.0 1019290